EW6470 Weather Reports


Display with metric or nautical units.
time (UTC)temp
F
wind
direction
speed
MPH
gust
MPH
rain 1hr
in
rain 24hr
in
rain mn
in
humidity
%
barometer
mb
20260904052518 54 0 0.0 0.0 0.00 0.00 0.00 87 1020.2
20260904052018 54 0 0.0 0.0 0.00 0.00 0.00 87 1020.3
20260904051532 54 0 0.0 0.0 0.00 0.00 0.00 86 1020.2
20260904051017 54 0 0.0 0.0 0.00 0.00 0.00 86 1020.3
20260904050521 54 0 0.0 0.0 0.00 0.00 0.00 86 1020.2
20260904050035 54 0 0.0 0.0 0.00 0.00 0.00 85 1020.1
20260904045517 55 0 0.0 0.0 0.00 0.00 0.00 84 1020.0
20260904045017 55 0 0.0 0.0 0.00 0.00 0.00 84 1020.2
20260904044536 55 0 0.0 0.0 0.00 0.00 0.00 83 1020.3
20260904044018 55 0 0.0 0.0 0.00 0.00 0.00 82 1020.4
20260904043516 56 0 0.0 0.0 0.00 0.00 0.00 82 1020.3
20260904043035 56 0 0.0 0.0 0.00 0.00 0.00 82 1020.3
20260904042518 56 0 0.0 0.0 0.00 0.00 0.00 80 1020.4
20260904042020 56 0 0.0 0.0 0.00 0.00 0.00 79 1020.3
20260904041537 56 0 0.0 0.0 0.00 0.00 0.00 80 1020.2
20260904041020 57 0 0.0 0.0 0.00 0.00 0.00 79 1020.3
20260904040521 57 0 0.0 0.0 0.00 0.00 0.00 81 1020.4
20260904040033 57 0 0.0 0.0 0.00 0.00 0.00 80 1020.4
20260904035521 57 0 0.0 0.0 0.00 0.00 0.00 81 1020.2
20260904035019 57 0 0.0 0.0 0.00 0.00 0.00 80 1020.1
20260904034535 58 0 0.0 0.0 0.00 0.00 0.00 80 1020.1
20260904034018 58 0 0.0 0.0 0.00 0.00 0.00 79 1020.3
20260904033516 58 0 0.0 0.0 0.00 0.00 0.00 79 1020.2
20260904033034 58 0 0.0 0.0 0.00 0.00 0.00 81 1019.9
20260904032518 58 0 0.0 0.0 0.00 0.00 0.00 81 1019.9
20260904032017 59 0 0.0 0.0 0.00 0.00 0.00 81 1020.0
20260904031536 59 0 0.0 0.0 0.00 0.00 0.00 81 1020.1
20260904031024 59 0 0.0 0.0 0.00 0.00 0.00 80 1020.0
20260904030523 59 0 0.0 0.0 0.00 0.00 0.00 80 1020.0
20260904030038 59 0 0.0 0.0 0.00 0.00 0.00 80 1020.0
20260904025519 59 0 0.0 0.0 0.00 0.00 0.00 80 1020.0
20260904025018 59 0 0.0 0.0 0.00 0.00 0.00 80 1020.0
20260904024533 59 0 0.0 0.0 0.00 0.00 0.00 79 1020.1
20260904024016 59 0 0.0 0.0 0.00 0.00 0.00 80 1019.9
20260904023516 59 0 0.0 0.0 0.00 0.00 0.00 78 1020.0
20260904023033 59 0 0.0 0.0 0.00 0.00 0.00 78 1020.0
20260904022520 59 0 0.0 0.0 0.00 0.00 0.00 74 1020.0
20260904022020 60 0 0.0 0.0 0.00 0.00 0.00 74 1019.9
20260904021538 60 0 0.0 0.0 0.00 0.00 0.00 72 1020.0
20260904021022 60 0 0.0 0.0 0.00 0.00 0.00 70 1019.8
20260904020518 60 0 0.0 0.0 0.00 0.00 0.00 69 1019.9
20260904020040 61 0 0.0 0.0 0.00 0.00 0.00 67 1019.8
20260904015518 61 0 0.0 0.0 0.00 0.00 0.00 64 1019.9
20260904015016 62 0 0.0 1.0 0.00 0.00 0.00 62 1019.9
20260904014534 62 0 0.0 1.0 0.00 0.00 0.00 63 1019.8
20260904014018 62 0 0.0 1.0 0.00 0.00 0.00 62 1019.8
20260904013515 62 215 0.0 1.0 0.00 0.00 0.00 64 1019.8
20260904013039 63 0 0.0 1.0 0.00 0.00 0.00 62 1019.8
20260904012523 63 217 0.0 1.0 0.00 0.00 0.00 64 1019.8
20260904012020 63 0 0.0 0.0 0.00 0.00 0.00 61 1019.6
20260904011535 63 217 0.0 1.0 0.00 0.00 0.00 62 1019.9
20260904011019 63 0 0.0 1.0 0.00 0.00 0.00 58 1019.7
20260904010519 63 252 0.0 2.0 0.00 0.00 0.00 62 1019.7
20260904010038 64 0 0.0 2.0 0.00 0.00 0.00 56 1019.5
20260904005520 64 175 0.0 1.0 0.00 0.00 0.00 56 1019.4
20260904005022 64 0 0.0 0.0 0.00 0.00 0.00 53 1019.1
20260904004533 64 0 0.0 0.0 0.00 0.00 0.00 58 1019.2
20260904004017 64 0 0.0 0.0 0.00 0.00 0.00 60 1019.4
20260904003553 64 0 0.0 1.0 0.00 0.00 0.00 55 1019.6
20260904003035 64 0 0.0 1.0 0.00 0.00 0.00 54 1019.9
20260904002516 64 0 0.0 1.0 0.00 0.00 0.00 51 1019.7
20260904002020 64 0 0.0 2.0 0.00 0.00 0.00 50 1019.7
20260904001537 64 0 0.0 2.0 0.00 0.00 0.00 49 1019.6
20260904001018 65 0 0.0 2.0 0.00 0.00 0.00 50 1019.6
20260904000520 65 196 0.0 2.0 0.00 0.00 0.00 50 1019.7
20260904000035 65 159 0.0 2.0 0.00 0.00 0.00 51 1019.7
20260903235520 65 175 0.0 2.0 0.00 0.00 0.00 49 1019.6
20260903235018 66 0 0.0 1.0 0.00 0.00 0.00 48 1019.5
20260903234536 66 0 0.0 2.0 0.00 0.00 0.00 46 1019.5
20260903234016 66 0 1.0 2.0 0.00 0.00 0.00 45 1019.4
20260903233518 66 154 0.0 2.0 0.00 0.00 0.00 48 1019.5
20260903233035 66 142 0.0 2.0 0.00 0.00 0.00 47 1019.2
20260903232520 66 266 0.0 2.0 0.00 0.00 0.00 47 1019.4
20260903232021 66 142 0.0 4.0 0.00 0.00 0.00 46 1019.3
20260903231535 67 143 1.0 4.0 0.00 0.00 0.00 45 1019.5
20260903231019 67 142 2.0 4.0 0.00 0.00 0.00 43 1019.6
20260903230517 66 299 0.0 1.0 0.00 0.00 0.00 44 1019.5
20260903230038 66 0 0.0 2.0 0.00 0.00 0.00 45 1019.3
20260903225518 65 159 0.0 2.0 0.00 0.00 0.00 49 1019.4
20260903225018 65 148 0.0 2.0 0.00 0.00 0.00 52 1019.5
20260903224540 65 0 0.0 3.0 0.00 0.00 0.00 48 1019.6
20260903224020 65 154 0.0 3.0 0.00 0.00 0.00 48 1019.7
20260903223523 65 165 1.0 3.0 0.00 0.00 0.00 49 1019.5
20260903223033 65 0 0.0 1.0 0.00 0.00 0.00 49 1019.5
20260903222518 65 143 0.0 1.0 0.00 0.00 0.00 51 1019.9
20260903222018 65 0 0.0 1.0 0.00 0.00 0.00 55 1019.9
20260903221546 64 0 0.0 1.0 0.00 0.00 0.00 52 1019.8
20260903221023 64 347 0.0 2.0 0.00 0.00 0.00 52 1019.8
20260903220519 64 0 0.0 2.0 0.00 0.00 0.00 51 1020.0
20260903220033 64 229 0.0 2.0 0.00 0.00 0.00 52 1019.9
20260903215516 63 171 1.0 2.0 0.00 0.00 0.00 51 1020.1
20260903215019 63 109 0.0 1.0 0.00 0.00 0.00 53 1020.1
20260903214534 62 113 0.0 1.0 0.00 0.00 0.00 52 1020.2
20260903214018 62 0 0.0 1.0 0.00 0.00 0.00 57 1020.1
20260903213517 61 0 0.0 2.0 0.00 0.00 0.00 56 1020.0
20260903213100 61 21 0.0 2.0 0.00 0.00 0.00 56 1020.0
20260903212519 61 27 0.0 1.0 0.00 0.00 0.00 56 1019.9
20260903212020 62 0 0.0 1.0 0.00 0.00 0.00 55 1020.0
20260903211534 61 0 0.0 1.0 0.00 0.00 0.00 58 1020.1
20260903211019 61 102 0.0 1.0 0.00 0.00 0.00 55 1020.3
20260903210518 61 0 0.0 1.0 0.00 0.00 0.00 55 1020.0
20260903210038 61 0 0.0 1.0 0.00 0.00 0.00 56 1020.2
20260903205521 61 0 0.0 2.0 0.00 0.00 0.00 59 1020.0
20260903205021 61 0 0.0 2.0 0.00 0.00 0.00 57 1019.8
20260903204533 61 141 0.0 2.0 0.00 0.00 0.00 58 1020.0
20260903204016 60 0 0.0 1.0 0.00 0.00 0.00 59 1020.1
20260903203515 60 0 0.0 1.0 0.00 0.00 0.00 59 1020.0
20260903203047 60 0 0.0 1.0 0.00 0.00 0.00 59 1020.1
20260903202516 60 0 0.0 4.0 0.00 0.00 0.00 59 1020.0
20260903202017 60 141 0.0 5.0 0.00 0.00 0.00 62 1020.0
20260903201537 59 150 1.0 5.0 0.00 0.00 0.00 60 1020.0
20260903201015 59 0 0.0 2.0 0.00 0.00 0.00 61 1019.9
20260903200520 59 216 0.0 1.0 0.00 0.00 0.00 61 1019.9
20260903200043 58 0 0.0 2.0 0.00 0.00 0.00 64 1020.1
20260903195518 58 0 0.0 2.0 0.00 0.00 0.00 65 1019.7
20260903195023 58 0 0.0 1.0 0.00 0.00 0.00 63 1019.7
20260903194541 57 0 0.0 1.0 0.00 0.00 0.00 65 1019.6
20260903194015 57 0 0.0 1.0 0.00 0.00 0.00 65 1019.6
20260903193515 57 0 0.0 5.0 0.00 0.00 0.00 65 1019.7
20260903193037 57 0 1.0 5.0 0.00 0.00 0.00 65 1019.9
20260903192518 57 0 0.0 1.0 0.00 0.00 0.00 66 1019.8
20260903192015 56 0 0.0 2.0 0.00 0.00 0.00 68 1019.8
20260903191536 56 125 0.0 2.0 0.00 0.00 0.00 68 1019.7
20260903191018 55 0 0.0 1.0 0.00 0.00 0.00 69 1019.5
20260903190521 54 0 0.0 1.0 0.00 0.00 0.00 72 1019.7
20260903190035 54 0 0.0 1.0 0.00 0.00 0.00 72 1019.8
20260903185516 54 0 0.0 1.0 0.00 0.00 0.00 74 1019.7
20260903185022 54 0 0.0 1.0 0.00 0.00 0.00 74 1019.7
20260903184534 53 82 0.0 1.0 0.00 0.00 0.00 74 1019.9
20260903184018 53 0 0.0 1.0 0.00 0.00 0.00 75 1020.0
20260903183516 53 0 0.0 1.0 0.00 0.00 0.00 76 1019.9
20260903183035 52 0 0.0 1.0 0.00 0.00 0.00 77 1019.8
20260903182518 52 0 0.0 1.0 0.00 0.00 0.00 77 1020.0
20260903182020 52 0 0.0 1.0 0.00 0.00 0.00 76 1020.0
20260903181534 52 63 0.0 1.0 0.00 0.00 0.00 79 1020.0
20260903181020 52 0 0.0 1.0 0.00 0.00 0.00 78 1020.0
20260903180524 52 0 0.0 1.0 0.00 0.00 0.00 79 1019.8
20260903180054 51 0 0.0 1.0 0.00 0.00 0.00 81 1019.8
20260903175518 51 0 0.0 1.0 0.00 0.00 0.00 82 1019.9
20260903175018 50 0 0.0 1.0 0.00 0.00 0.00 82 1019.9
20260903174534 50 343 0.0 1.0 0.00 0.00 0.00 82 1020.0
20260903174019 49 0 0.0 1.0 0.00 0.00 0.00 84 1020.1
20260903173518 49 0 0.0 1.0 0.00 0.00 0.00 84 1020.1
20260903173036 48 0 0.0 0.0 0.00 0.00 0.00 85 1020.1
20260903172524 48 0 0.0 0.0 0.00 0.00 0.00 86 1020.0
20260903172018 47 0 0.0 0.0 0.00 0.00 0.00 85 1019.9
20260903171542 47 0 0.0 0.0 0.00 0.00 0.00 86 1019.8
20260903171019 47 0 0.0 0.0 0.00 0.00 0.00 86 1019.9
20260903170521 47 0 0.0 0.0 0.00 0.00 0.00 87 1019.8
20260903170034 47 0 0.0 0.0 0.00 0.00 0.00 87 1020.0
20260903165517 46 0 0.0 0.0 0.00 0.00 0.00 88 1019.9
20260903165019 46 0 0.0 0.0 0.00 0.00 0.00 89 1019.7
20260903164537 46 0 0.0 0.0 0.00 0.00 0.00 91 1019.7
20260903164020 46 0 0.0 0.0 0.00 0.00 0.00 92 1019.6
20260903163517 45 0 0.0 0.0 0.00 0.00 0.00 92 1019.5
20260903163042 45 0 0.0 0.0 0.00 0.00 0.00 93 1019.5
20260903162517 45 0 0.0 0.0 0.00 0.00 0.00 93 1019.6
20260903162019 44 0 0.0 0.0 0.00 0.00 0.00 94 1019.5
20260903161532 44 0 0.0 0.0 0.00 0.00 0.00 94 1019.7
20260903161018 44 0 0.0 0.0 0.00 0.00 0.00 95 1019.7
20260903160518 44 0 0.0 0.0 0.00 0.00 0.00 95 1019.7
20260903160035 43 0 0.0 0.0 0.00 0.00 0.00 96 1019.6
20260903155519 43 0 0.0 0.0 0.00 0.00 0.00 96 1019.7
20260903155024 42 0 0.0 0.0 0.00 0.00 0.00 96 1019.6
20260903154534 42 0 0.0 0.0 0.00 0.00 0.00 96 1019.7
20260903154021 42 0 0.0 0.0 0.00 0.00 0.00 95 1019.8
20260903153518 41 0 0.0 0.0 0.00 0.00 0.00 95 1019.5
20260903153035 41 0 0.0 0.0 0.00 0.00 0.00 95 1019.6
20260903152517 41 0 0.0 0.0 0.00 0.00 0.00 95 1019.4
20260903152020 41 0 0.0 0.0 0.00 0.00 0.00 95 1019.7
20260903151534 41 0 0.0 0.0 0.00 0.00 0.00 95 1019.7
20260903151017 41 0 0.0 0.0 0.00 0.00 0.00 95 1019.7
20260903150519 41 0 0.0 0.0 0.00 0.00 0.00 95 1019.7
20260903150035 40 0 0.0 0.0 0.00 0.00 0.00 95 1019.7
20260903145519 40 0 0.0 0.0 0.00 0.00 0.00 95 1019.8
20260903145019 40 0 0.0 0.0 0.00 0.00 0.00 95 1019.8
20260903144535 40 0 0.0 0.0 0.00 0.00 0.00 95 1019.7
20260903144018 40 0 0.0 0.0 0.00 0.00 0.00 95 1019.7
20260903143519 40 0 0.0 0.0 0.00 0.00 0.00 95 1019.6
20260903143035 40 0 0.0 0.0 0.00 0.00 0.00 95 1019.7
20260903142518 40 0 0.0 0.0 0.00 0.00 0.00 95 1019.7
20260903142018 40 0 0.0 0.0 0.00 0.00 0.00 95 1019.7
20260903141536 40 0 0.0 0.0 0.00 0.00 0.00 95 1019.7
20260903141018 40 0 0.0 0.0 0.00 0.00 0.00 95 1019.6
20260903140520 39 0 0.0 0.0 0.00 0.00 0.00 95 1019.5
20260903140037 40 0 0.0 0.0 0.00 0.00 0.00 95 1019.4
20260903135520 40 0 0.0 0.0 0.00 0.00 0.00 95 1019.1
20260903135019 40 0 0.0 0.0 0.00 0.00 0.00 95 1019.3
20260903134531 40 0 0.0 0.0 0.00 0.00 0.00 95 1019.4
20260903134018 40 0 0.0 0.0 0.00 0.00 0.00 95 1019.5
20260903133519 40 0 0.0 0.0 0.00 0.00 0.00 95 1019.4
20260903133033 40 0 0.0 0.0 0.00 0.00 0.00 95 1019.5
20260903132519 40 0 0.0 0.0 0.00 0.00 0.00 95 1019.4
20260903132018 40 0 0.0 0.0 0.00 0.00 0.00 95 1019.2
20260903131540 40 0 0.0 0.0 0.00 0.00 0.00 95 1019.2
20260903131018 40 0 0.0 0.0 0.00 0.00 0.00 95 1019.0
20260903130518 40 0 0.0 0.0 0.00 0.00 0.00 95 1019.2
20260903130041 40 0 0.0 0.0 0.00 0.00 0.00 95 1019.1
20260903125524 40 0 0.0 0.0 0.00 0.00 0.00 95 1019.1
20260903125018 40 0 0.0 0.0 0.00 0.00 0.00 95 1019.1
20260903124532 40 0 0.0 0.0 0.00 0.00 0.00 95 1019.1
20260903124018 39 0 0.0 0.0 0.00 0.00 0.00 95 1018.9
20260903123516 39 0 0.0 0.0 0.00 0.00 0.00 95 1019.0
20260903123036 39 0 0.0 0.0 0.00 0.00 0.00 95 1018.9
20260903122516 39 0 0.0 0.0 0.00 0.00 0.00 95 1019.1
20260903122024 39 0 0.0 0.0 0.00 0.00 0.00 95 1019.0
20260903121543 39 0 0.0 0.0 0.00 0.00 0.00 95 1019.1
20260903121018 39 0 0.0 0.0 0.00 0.00 0.00 95 1019.1
20260903120517 39 0 0.0 0.0 0.00 0.00 0.00 95 1019.1
20260903120032 39 0 0.0 0.0 0.00 0.00 0.00 95 1019.1
20260903115515 39 0 0.0 0.0 0.00 0.00 0.00 95 1019.1
20260903115017 39 0 0.0 0.0 0.00 0.00 0.00 95 1019.1
20260903114534 39 0 0.0 0.0 0.00 0.00 0.00 95 1019.0
20260903114016 40 0 0.0 0.0 0.00 0.00 0.00 95 1018.9
20260903113518 40 0 0.0 0.0 0.00 0.00 0.00 95 1018.8
20260903113037 40 0 0.0 0.0 0.00 0.00 0.00 95 1018.9
20260903112516 40 0 0.0 0.0 0.00 0.00 0.00 95 1018.8
20260903112023 40 0 0.0 0.0 0.00 0.00 0.00 95 1018.9
20260903111530 40 0 0.0 0.0 0.00 0.00 0.00 95 1018.9
20260903111015 40 0 0.0 0.0 0.00 0.00 0.00 95 1018.8
20260903110521 40 0 0.0 0.0 0.00 0.00 0.00 95 1018.5
20260903110106 40 0 0.0 0.0 0.00 0.00 0.00 95 1018.6
20260903105518 40 0 0.0 0.0 0.00 0.00 0.00 95 1018.7
20260903105016 40 0 0.0 0.0 0.00 0.00 0.00 95 1018.6
20260903104533 40 0 0.0 0.0 0.00 0.00 0.00 95 1018.5
20260903104016 40 0 0.0 0.0 0.00 0.00 0.00 95 1018.6
20260903103520 40 0 0.0 0.0 0.00 0.00 0.00 95 1018.6
20260903103033 39 0 0.0 0.0 0.00 0.00 0.00 95 1018.6
20260903102517 39 0 0.0 0.0 0.00 0.00 0.00 95 1018.7
20260903102017 39 0 0.0 0.0 0.00 0.00 0.00 95 1018.5
20260903101534 39 0 0.0 0.0 0.00 0.00 0.00 95 1018.6
20260903101016 39 0 0.0 0.0 0.00 0.00 0.00 94 1018.5
20260903100518 39 0 0.0 0.0 0.00 0.00 0.00 95 1018.6
20260903100036 39 0 0.0 0.0 0.00 0.00 0.00 94 1018.4
20260903095515 39 0 0.0 0.0 0.00 0.00 0.00 94 1018.3
20260903095019 39 0 0.0 0.0 0.00 0.00 0.00 95 1018.2
20260903094548 39 0 0.0 0.0 0.00 0.00 0.00 95 1018.1
20260903094019 39 0 0.0 0.0 0.00 0.00 0.00 95 1018.0
20260903093518 39 0 0.0 0.0 0.00 0.00 0.00 95 1018.2
20260903093036 39 0 0.0 0.0 0.00 0.00 0.00 95 1018.1
20260903092516 39 0 0.0 0.0 0.00 0.00 0.00 95 1018.1
20260903092018 38 0 0.0 0.0 0.00 0.00 0.00 94 1018.1
20260903091534 39 0 0.0 0.0 0.00 0.00 0.00 94 1018.1
20260903091019 39 0 0.0 0.0 0.00 0.00 0.00 94 1018.0
20260903090517 39 0 0.0 0.0 0.00 0.00 0.00 94 1017.9
20260903090034 39 0 0.0 0.0 0.00 0.00 0.00 94 1017.9
20260903085518 39 0 0.0 0.0 0.00 0.00 0.00 94 1017.8
20260903085016 39 0 0.0 0.0 0.00 0.00 0.00 94 1018.0
20260903084537 39 0 0.0 0.0 0.00 0.00 0.00 94 1018.0
20260903084018 38 0 0.0 0.0 0.00 0.00 0.00 94 1018.1
20260903083516 39 0 0.0 0.0 0.00 0.00 0.00 94 1018.0
20260903083034 39 0 0.0 0.0 0.00 0.00 0.00 94 1017.7
20260903082519 39 0 0.0 0.0 0.00 0.00 0.00 94 1017.7
20260903082016 39 0 0.0 0.0 0.00 0.00 0.00 94 1017.7
20260903081541 39 0 0.0 0.0 0.00 0.00 0.00 93 1017.8
20260903081017 39 0 0.0 0.0 0.00 0.00 0.00 93 1017.9
20260903080517 39 0 0.0 0.0 0.00 0.00 0.00 93 1017.8
20260903080034 39 0 0.0 0.0 0.00 0.00 0.00 93 1017.9
20260903075520 40 0 0.0 0.0 0.00 0.00 0.00 93 1017.7
20260903075016 40 0 0.0 0.0 0.00 0.00 0.00 93 1017.4
20260903074539 40 0 0.0 0.0 0.00 0.00 0.00 93 1017.4
20260903074023 40 0 0.0 0.0 0.00 0.00 0.00 93 1017.5
20260903073518 41 0 0.0 0.0 0.00 0.00 0.00 93 1017.3
20260903073033 41 0 0.0 0.0 0.00 0.00 0.00 93 1017.3
20260903072519 41 0 0.0 0.0 0.00 0.00 0.00 93 1017.2
20260903072027 41 0 0.0 0.0 0.00 0.00 0.00 93 1017.3
20260903071533 41 0 0.0 0.0 0.00 0.00 0.00 92 1017.1
20260903071020 42 0 0.0 0.0 0.00 0.00 0.00 92 1017.1
20260903070518 42 0 0.0 0.0 0.00 0.00 0.00 92 1017.1
20260903070037 42 0 0.0 0.0 0.00 0.00 0.00 92 1017.0
20260903065519 42 0 0.0 0.0 0.00 0.00 0.00 92 1016.9
20260903065015 42 0 0.0 0.0 0.00 0.00 0.00 92 1016.9
20260903064534 43 0 0.0 0.0 0.00 0.00 0.00 92 1016.7
20260903064015 43 0 0.0 0.0 0.00 0.00 0.00 91 1016.6
20260903063516 43 0 0.0 0.0 0.00 0.00 0.00 91 1016.6
20260903063038 43 0 0.0 0.0 0.00 0.00 0.00 91 1016.7
20260903062519 43 0 0.0 0.0 0.00 0.00 0.00 91 1016.7
20260903062023 43 0 0.0 0.0 0.00 0.00 0.00 91 1016.6
20260903061547 44 0 0.0 0.0 0.00 0.00 0.00 91 1016.6
20260903061016 44 0 0.0 0.0 0.00 0.00 0.00 90 1016.6
20260903060517 44 0 0.0 0.0 0.00 0.00 0.00 90 1016.5
20260903060108 44 0 0.0 0.0 0.00 0.00 0.00 89 1016.3
20260903055518 44 0 0.0 0.0 0.00 0.00 0.00 89 1016.2
20260903055021 45 0 0.0 0.0 0.00 0.00 0.00 89 1016.2
20260903054543 45 0 0.0 0.0 0.00 0.00 0.00 88 1016.1
20260903054022 45 0 0.0 0.0 0.00 0.00 0.00 88 1016.2
20260903053520 46 0 0.0 0.0 0.00 0.00 0.00 87 1016.2
20260903053055 46 0 0.0 0.0 0.00 0.00 0.00 87 1016.0